This is the latest recevied weather packets stored in our database for station/object SP1BMW-13. If no packets are shown the sender has not sent any weather packets the latest 10 day(s).
| Time | Temp. | Humidity | Pressure | Rain* | Wind** | Luminosity | Snow |
|---|---|---|---|---|---|---|---|
| 1788082237 | 25° C | 57% | 1007.9 hPa | 0 mm | 1.34 m/s, 125° | 539 W/m² | - |
| 1788082180 | 24.44° C | 57% | 1008 hPa | 0 mm | 1.79 m/s, 208° | 535 W/m² | - |
| 1788082116 | 24.44° C | 58% | 1008 hPa | 0 mm | 1.34 m/s, 117° | 532 W/m² | - |
| 1788082056 | 24.44° C | 58% | 1008 hPa | 0 mm | 0.89 m/s, 165° | 530 W/m² | - |
| 1788081997 | 24.44° C | 58% | 1008 hPa | 0 mm | 1.34 m/s, 48° | 529 W/m² | - |
| 1788081936 | 24.44° C | 58% | 1007.9 hPa | 0 mm | 0.89 m/s, 235° | 528 W/m² | - |
| 1788081876 | 24.44° C | 58% | 1008.1 hPa | 0 mm | 0.89 m/s, 254° | 528 W/m² | - |
| 1788081823 | 24.44° C | 58% | 1008.1 hPa | 0 mm | 1.79 m/s, 353° | 526 W/m² | - |
| 1788081756 | 23.89° C | 59% | 1007.9 hPa | 0 mm | 0.45 m/s, 260° | 527 W/m² | - |
| 1788081696 | 23.89° C | 60% | 1007.9 hPa | 0 mm | 0.45 m/s, 107° | 532 W/m² | - |
| 1788081637 | 23.89° C | 61% | 1008 hPa | 0 mm | 1.79 m/s, 268° | 536 W/m² | - |
| 1788081577 | 23.89° C | 61% | 1007.9 hPa | 0 mm | 0.89 m/s, 13° | 554 W/m² | - |
| 1788081517 | 23.33° C | 62% | 1007.9 hPa | 0 mm | 0.89 m/s, 319° | 512 W/m² | - |
| 1788081457 | 23.33° C | 62% | 1007.9 hPa | 0 mm | 0.89 m/s, 284° | 403 W/m² | - |
| 1788081399 | 23.33° C | 62% | 1008 hPa | 0 mm | 0.45 m/s, 274° | 518 W/m² | - |
| 1788081338 | 23.33° C | 62% | 1008 hPa | 0 mm | 1.34 m/s, 188° | 334 W/m² | - |
| 1788081276 | 23.33° C | 63% | 1008.1 hPa | 0 mm | 0.89 m/s, 301° | 398 W/m² | - |
| 1788081216 | 23.33° C | 62% | 1007.9 hPa | 0 mm | 0.45 m/s, 347° | 208 W/m² | - |
| 1788081157 | 23.33° C | 61% | 1007.9 hPa | 0 mm | 1.79 m/s, 151° | 237 W/m² | - |
| 1788081096 | 23.33° C | 62% | 1007.9 hPa | 0 mm | 1.34 m/s, 232° | 281 W/m² | - |
| 1788081036 | 23.33° C | 62% | 1007.9 hPa | 0 mm | 0.89 m/s, 293° | 279 W/m² | - |
| 1788080976 | 23.33° C | 63% | 1008 hPa | 0 mm | 0.45 m/s, 339° | 266 W/m² | - |
| 1788080916 | 23.33° C | 61% | 1007.9 hPa | 0 mm | 0 m/s | 264 W/m² | - |
| 1788080865 | 23.33° C | 64% | 1008 hPa | 0 mm | 0.89 m/s, 285° | 244 W/m² | - |
| 1788080796 | 23.33° C | 62% | 1008.1 hPa | 0 mm | 0.89 m/s, 90° | 220 W/m² | - |
* Rain latest hour (hover to see other rain measurements)
** Current wind speed in m/s (hover to see current wind gust speed)